Location: Clarion
(42.7316°N, 93.7330°W)
Time: 08:19:33
(UTC+00:00)

DEBRIS - Pass Details

Date: 22 April 2026
Orbit: 301 x 14425 km, 49.4° (Epoch: 17 May)

Event Time Altitude Azimuth Distance (km) Brightness Sun altitude
Exits shadow 05:21:36 58° 349° (NNW) 1,098 4.4 -33.8°
Maximum altitude 05:21:39 58° 351° (N) 1,105 4.4 -33.8°
Drops below altitude 10° 05:34:02 10° 70° (ENE) 5,945 8.1 -34.3°
Sets 05:43:06 0° 74° (ENE) 9,199 9.1 -34.6°
